Simultaneous Nadir Overpasses (SNOs) Predictions

Prediction of SNOs between METOP-B and TERRA Satellite Orbit:

Table of predicted SNOs for the next 14.0 days since TLE Epoch: 3/2/2013
Index Date (METOP-B) Time (METOP-B) Lat,Lon (METOP-B) SZA (METOP-B ) Date (TERRA) Time (TERRA) Lat,Lon (TERRA) SZA (TERRA ) Distance(km) Time Diff (sec)
1 03/04/2013 21:36:25 81.28, -97.39 89.77 03/04/2013 21:37:03 81.28, -97.34 89.79 0.95 38
2 03/04/2013 22:27:05 -81.28, 70.08 90.24 03/04/2013 22:26:30 -81.28, 70.26 90.24 2.96 35
3 03/07/2013 17:10:48 81.28, -30.89 88.71 03/07/2013 17:11:24 81.28, -30.92 88.72 0.49 36
4 03/07/2013 18:01:28 -81.28, 136.64 91.29 03/07/2013 18:00:51 -81.28, 136.70 91.30 1.08 37
5 03/10/2013 12:45:11 81.28, 35.57 87.64 03/10/2013 12:45:46 81.29, 35.58 87.66 0.75 35
6 03/1
